Weather History for Columbia Airport, CA

Change the Weather History Date:

Sunday, April 27, 2014

  Actual Average (KMOD) Record (KMOD)
Temperature  
Mean Temperature 48 °F -  
Max Temperature 62 °F 78 °F 98 °F (2004)
Min Temperature 35 °F 51 °F 36 °F (1970)
Degree Days  
Heating Degree Days 16 3  
Month to date heating degree days 123  
Since 1 July heating degree days 2128  
Cooling Degree Days 0 2  
Month to date cooling degree days 31  
Year to date cooling degree days 36  
Moisture  
Dew Point 39 °F    
Average Humidity 72    
Maximum Humidity 100    
Minimum Humidity 33    
Precipitation  
Precipitation 0.00 in 0.02 in 0.68 in (1954)
Month to date precipitation 0.89  
Year to date precipitation 7.92  
Since 1 July precipitation 12.28  
Snow  
Snow 0.00 in - - ()
Month to date snowfall  
Since 1 July snowfall  
Snow Depth -    
Sea Level Pressure  
Sea Level Pressure 30.06 in    
Wind  
Wind Speed 2 mph (SSE)    
Max Wind Speed 8 mph    
Max Gust Speed 16 mph    
Visibility 10 miles    
Events      
T = Trace of Precipitation, MM = Missing Value Source: NWS Daily Summary

Daily Weather History Graph

Daily Weather History Graph

Search for Another Location

Airport:

Trip Planner

Search our weather history database for the weather conditions in past years. The results will help you decide how hot, cold, wet, or windy it might be!

Date:

Astronomy

Apr. 27, 2014 Rise Set
Actual Time 6:10 AM PDT 7:48 PM PDT
Civil Twilight 5:42 AM PDT 8:17 PM PDT
Nautical Twilight 5:08 AM PDT 8:51 PM PDT
Astronomical Twilight 4:32 AM PDT 9:27 PM PDT
Moon 5:11 AM PDT (4/27) 6:29 PM PDT (4/27)
Length of Visible Light 14h 34m
Length of Day
13h 38m
Waning Crescent, 3% of the Moon is Illuminated
Apr 27
Waning Crescent
Apr 28
New
May 6
First Quarter
May 14
Full
May 21
Last Quarter

Hourly Weather History & Observations

Time (PDT) Temp. Windchill Dew Point Humidity Pressure Visibility Wind Dir Wind Speed Gust Speed Precip Events Conditions
12:15 AM 39.2 °F - 37.4 °F 93% 30.04 in 10.0 mi Calm Calm - N/A   Clear
12:35 AM 37.4 °F - 37.4 °F 100% 30.04 in 10.0 mi Calm Calm - N/A   Clear
12:55 AM 37.4 °F - 35.6 °F 93% 30.04 in 10.0 mi Calm Calm - N/A   Clear
1:15 AM 37.4 °F - 37.4 °F 100% 30.05 in 10.0 mi Calm Calm - N/A   Clear
1:35 AM 37.4 °F - 35.6 °F 93% 30.04 in 10.0 mi Calm Calm - N/A   Clear
1:55 AM 37.4 °F - 35.6 °F 93% 30.04 in 10.0 mi Calm Calm - N/A   Clear
2:15 AM 37.4 °F - 35.6 °F 93% 30.04 in 10.0 mi Calm Calm - N/A   Clear
2:35 AM 37.4 °F - 35.6 °F 93% 30.03 in 10.0 mi Calm Calm - N/A   Clear
2:55 AM 35.6 °F - 35.6 °F 100% 30.03 in 10.0 mi Calm Calm - N/A   Mostly Cloudy
3:15 AM 37.4 °F - 35.6 °F 93% 30.03 in 10.0 mi Calm Calm - N/A   Overcast
3:35 AM 37.4 °F - 37.4 °F 100% 30.04 in 10.0 mi Calm Calm - N/A   Overcast
3:55 AM 39.2 °F - 37.4 °F 93% 30.04 in 10.0 mi Calm Calm - N/A   Overcast
4:15 AM 39.2 °F - 37.4 °F 93% 30.04 in 10.0 mi Calm Calm - N/A   Overcast
4:35 AM 37.4 °F - 37.4 °F 100% 30.04 in 10.0 mi Calm Calm - N/A   Overcast
4:55 AM 39.2 °F - 37.4 °F 93% 30.03 in 10.0 mi Calm Calm - N/A   Overcast
5:15 AM 39.2 °F - 37.4 °F 93% 30.03 in 10.0 mi Calm Calm - N/A   Overcast
5:35 AM 39.2 °F - 37.4 °F 93% 30.03 in 10.0 mi Calm Calm - N/A   Overcast
5:55 AM 39.2 °F - 39.2 °F 100% 30.04 in 10.0 mi Calm Calm - N/A   Overcast
6:15 AM 39.2 °F - 39.2 °F 100% 30.04 in 10.0 mi Calm Calm - N/A   Overcast
6:35 AM 41.0 °F - 39.2 °F 93% 30.04 in 10.0 mi Calm Calm - N/A   Overcast
6:55 AM 41.0 °F - 39.2 °F 93% 30.05 in 10.0 mi Calm Calm - N/A   Overcast
7:15 AM 42.8 °F - 39.2 °F 87% 30.05 in 10.0 mi Calm Calm - N/A   Overcast
7:35 AM 44.6 °F - 41.0 °F 87% 30.04 in 10.0 mi Calm Calm - N/A   Overcast
7:55 AM 48.2 °F - 42.8 °F 82% 30.05 in 10.0 mi Calm Calm - N/A   Overcast
8:15 AM 48.2 °F - 41.0 °F 76% 30.05 in 10.0 mi Calm Calm - N/A   Overcast
8:55 AM 50.0 °F - 39.2 °F 66% 30.04 in 10.0 mi Calm Calm - N/A   Overcast
9:15 AM 53.6 °F - 39.2 °F 58% 30.05 in 10.0 mi South 3.5 mph - N/A   Overcast
9:35 AM 51.8 °F - 39.2 °F 62% 30.07 in 10.0 mi SSW 5.8 mph - N/A   Overcast
9:55 AM 53.6 °F - 39.2 °F 58% 30.07 in 10.0 mi WSW 4.6 mph - N/A   Overcast
10:15 AM 55.4 °F - 37.4 °F 51% 30.08 in 10.0 mi WSW 5.8 mph - N/A   Overcast
10:35 AM 57.2 °F - 37.4 °F 48% 30.07 in 10.0 mi SSE 5.8 mph - N/A   Mostly Cloudy
10:55 AM 57.2 °F - 28.4 °F 33% 30.08 in 10.0 mi SSW 4.6 mph - N/A   Partly Cloudy
11:15 AM 55.4 °F - 33.8 °F 44% 30.08 in 10.0 mi SW 6.9 mph - N/A   Scattered Clouds
11:35 AM 59.0 °F - 35.6 °F 42% 30.08 in 10.0 mi Calm Calm - N/A   Partly Cloudy
11:55 AM 59.0 °F - 35.6 °F 42% 30.07 in 10.0 mi SE 5.8 mph - N/A   Partly Cloudy
12:15 PM 59.0 °F - 35.6 °F 42% 30.08 in 10.0 mi South 4.6 mph - N/A   Scattered Clouds
12:55 PM 60.8 °F - 41.0 °F 48% 30.08 in 10.0 mi South 3.5 mph - N/A   Mostly Cloudy
1:35 PM 62.6 °F - 44.6 °F 52% 30.07 in 10.0 mi South 6.9 mph - N/A   Clear
1:55 PM 60.8 °F - 44.6 °F 55% 30.06 in 10.0 mi SSE 6.9 mph - N/A   Clear
2:15 PM 62.6 °F - 46.4 °F 55% 30.07 in 10.0 mi SSE 4.6 mph - N/A   Partly Cloudy
2:55 PM 62.6 °F - 46.4 °F 55% 30.06 in 10.0 mi SSE 5.8 mph - N/A   Scattered Clouds
3:15 PM 62.6 °F - 44.6 °F 52% 30.05 in 10.0 mi South 8.1 mph - N/A   Mostly Cloudy
3:35 PM 62.6 °F - 46.4 °F 55% 30.05 in 10.0 mi South 8.1 mph - N/A   Mostly Cloudy
3:55 PM 62.6 °F - 44.6 °F 52% 30.04 in 10.0 mi SSE 6.9 mph 16.1 mph N/A   Partly Cloudy
4:15 PM 62.6 °F - 44.6 °F 52% 30.04 in 10.0 mi SE 6.9 mph - N/A   Partly Cloudy
4:35 PM 62.6 °F - 44.6 °F 52% 30.04 in 10.0 mi SE 8.1 mph - N/A   Scattered Clouds
4:55 PM 62.6 °F - 41.0 °F 45% 30.05 in 10.0 mi SSE 6.9 mph - N/A   Scattered Clouds
5:15 PM 62.6 °F - 41.0 °F 45% 30.05 in 10.0 mi SSE 5.8 mph - N/A   Mostly Cloudy
5:35 PM 59.0 °F - 39.2 °F 48% 30.04 in 10.0 mi South 6.9 mph - N/A   Scattered Clouds
5:55 PM 59.0 °F - 37.4 °F 45% 30.04 in 10.0 mi SSE 6.9 mph - N/A   Clear
6:15 PM 59.0 °F - 39.2 °F 48% 30.05 in 10.0 mi SSE 6.9 mph - N/A   Clear
6:35 PM 59.0 °F - 37.4 °F 45% 30.05 in 10.0 mi SSE 4.6 mph - N/A   Clear
6:55 PM 57.2 °F - 41.0 °F 55% 30.06 in 10.0 mi SSE 5.8 mph - N/A   Clear
7:15 PM 55.4 °F - 41.0 °F 58% 30.06 in 10.0 mi South 6.9 mph - N/A   Clear
7:35 PM 53.6 °F - 41.0 °F 62% 30.07 in 10.0 mi SSE 8.1 mph - N/A   Clear
7:55 PM 53.6 °F - 41.0 °F 62% 30.08 in 10.0 mi SSE 6.9 mph - N/A   Clear
8:15 PM 50.0 °F - 41.0 °F 71% 30.09 in 10.0 mi SSE 4.6 mph - N/A   Clear
8:35 PM 50.0 °F - 41.0 °F 71% 30.09 in 10.0 mi Calm Calm - N/A   Clear
8:55 PM 48.2 °F - 41.0 °F 76% 30.09 in 10.0 mi NNE 3.5 mph - N/A   Clear
9:15 PM 48.2 °F - 41.0 °F 76% 30.09 in 10.0 mi NE 4.6 mph - N/A   Clear
9:35 PM 46.4 °F 45.2 °F 41.0 °F 81% 30.10 in 10.0 mi NE 3.5 mph - N/A   Clear
9:55 PM 46.4 °F - 41.0 °F 81% 30.10 in 10.0 mi Calm Calm - N/A   Clear
10:15 PM 44.6 °F - 41.0 °F 87% 30.10 in 10.0 mi Calm Calm - N/A   Clear
10:35 PM 44.6 °F - 41.0 °F 87% 30.10 in 10.0 mi Calm Calm - N/A   Clear
10:55 PM 44.6 °F - 41.0 °F 87% 30.10 in 10.0 mi Calm Calm - N/A   Clear
11:15 PM 44.6 °F 43.1 °F 41.0 °F 87% 30.09 in 10.0 mi NNW 3.5 mph - N/A   Clear
11:35 PM 44.6 °F - 41.0 °F 87% 30.09 in 10.0 mi Calm Calm - N/A   Clear
11:55 PM 44.6 °F - 41.0 °F 87% 30.10 in 10.0 mi Calm Calm - N/A   Clear